N0RPM-13 Weather Reports


time (UTC)temp
C
wind
direction
speed
KPH
gust
KPH
rain 1hr
cm
rain 24hr
cm
rain mn
cm
humidity
%
barometer
mb
20260906162721 24 159 9.7 14.5 0.00 0.00 0.00 74 1020.4
20260906162216 23 111 1.6 4.8 0.00 0.00 0.00 75 1020.2
20260906161711 23 136 1.6 9.7 0.00 0.00 0.00 76 1020.4
20260906161210 23 166 1.6 6.4 0.00 0.00 0.00 76 1020.2
20260906160709 23 173 6.4 11.3 0.00 0.00 0.00 76 1020.5
20260906160209 23 146 8.0 11.3 0.00 0.00 0.00 77 1020.2
20260906155706 23 214 3.2 9.7 0.00 0.00 0.00 77 1020.1
20260906155201 23 182 6.4 12.9 0.00 0.00 0.00 77 1020.2
20260906154657 23 130 1.6 4.8 0.00 0.00 0.00 77 1020.2
20260906154156 23 153 1.6 3.2 0.00 0.00 0.00 79 1020.1
20260906153656 23 151 6.4 9.7 0.00 0.00 0.00 78 1020.4
20260906153156 23 148 3.2 11.3 0.00 0.00 0.00 78 1020.7
20260906152651 23 160 1.6 6.4 0.00 0.00 0.00 78 1020.6
20260906152151 23 136 3.2 3.2 0.00 0.00 0.00 78 1020.7
20260906151645 22 165 3.2 3.2 0.00 0.00 0.00 79 1020.7
20260906151142 22 128 6.4 9.7 0.00 0.00 0.00 80 1020.5
20260906150636 22 169 3.2 12.9 0.00 0.00 0.00 79 1020.5
20260906150132 23 163 3.2 4.8 0.00 0.00 0.00 79 1020.6
20260906145631 22 164 6.4 9.7 0.00 0.00 0.00 80 1020.5
20260906145125 22 173 6.4 9.7 0.00 0.00 0.00 82 1020.5
20260906144620 22 182 3.2 4.8 0.00 0.00 0.00 82 1020.4
20260906144115 21 181 1.6 6.4 0.00 0.00 0.00 84 1020.4
20260906143615 21 165 3.2 4.8 0.00 0.00 0.00 86 1020.1
20260906143112 21 147 3.2 4.8 0.00 0.00 0.00 85 1020.2
20260906142611 21 151 4.8 9.7 0.00 0.00 0.00 86 1020.5
20260906142106 21 131 1.6 6.4 0.00 0.00 0.00 86 1020.7
20260906141605 21 148 4.8 4.8 0.00 0.00 0.00 87 1020.5
20260906141101 21 171 4.8 4.8 0.00 0.00 0.00 87 1020.5
20260906140559 21 179 1.6 4.8 0.00 0.00 0.00 88 1020.4
20260906140054 21 192 4.8 4.8 0.00 0.00 0.00 88 1020.1
20260906135551 21 173 3.2 6.4 0.00 0.00 0.00 88 1020.5
20260906135048 21 162 3.2 6.4 0.00 0.00 0.00 88 1020.0
20260906134543 21 162 1.6 3.2 0.00 0.00 0.00 89 1020.1
20260906134038 21 148 1.6 1.6 0.00 0.00 0.00 89 1020.1
20260906133533 21 129 1.6 4.8 0.00 0.00 0.00 89 1020.1
20260906133029 21 115 3.2 6.4 0.00 0.00 0.00 90 1020.0
20260906132524 21 131 3.2 6.4 0.00 0.00 0.00 90 1019.9
20260906132019 21 138 3.2 3.2 0.00 0.00 0.00 90 1019.9
20260906131514 21 144 1.6 3.2 0.00 0.00 0.00 91 1019.8
20260906131010 20 141 3.2 6.4 0.00 0.00 0.00 91 1019.8
20260906130509 21 162 3.2 6.4 0.00 0.00 0.00 91 1019.5
20260906130004 21 171 0.0 3.2 0.00 0.00 0.00 92 1019.8
20260906125502 20 172 1.6 1.6 0.00 0.00 0.00 92 1019.8
20260906125001 20 132 1.6 3.2 0.00 0.00 0.00 92 1019.9
20260906124457 20 127 1.6 4.8 0.00 0.00 0.00 92 1019.6
20260906123951 20 136 0.0 1.6 0.00 0.00 0.00 93 1020.0
20260906123451 20 136 0.0 1.6 0.00 0.00 0.00 93 1019.9
20260906122950 20 142 1.6 1.6 0.00 0.00 0.00 94 1019.8
20260906122445 20 145 0.0 1.6 0.00 0.00 0.00 95 1019.8
20260906121942 20 145 0.0 0.0 0.00 0.00 0.00 95 1019.5
20260906121438 20 145 0.0 1.6 0.00 0.00 0.00 95 1019.7
20260906120934 20 145 0.0 0.0 0.00 0.00 0.00 95 1019.5
20260906120429 20 145 0.0 0.0 0.00 0.00 0.00 95 1019.6
20260906115926 20 145 0.0 0.0 0.00 0.00 0.00 95 1019.4
20260906115421 20 145 0.0 0.0 0.00 0.00 0.00 94 1019.4
20260906114921 20 145 0.0 1.6 0.00 0.00 0.00 94 1019.3
20260906114421 20 146 0.0 1.6 0.00 0.00 0.00 94 1019.3
20260906113917 20 146 0.0 1.6 0.00 0.00 0.00 94 1019.4
20260906113415 20 149 0.0 1.6 0.00 0.00 0.00 94 1019.2
20260906112911 20 150 0.0 1.6 0.00 0.00 0.00 94 1019.1
20260906112407 20 150 0.0 1.6 0.00 0.00 0.00 94 1019.2
20260906111902 20 150 0.0 1.6 0.00 0.00 0.00 93 1019.2
20260906111401 20 151 0.0 1.6 0.00 0.00 0.00 93 1019.2
20260906110856 20 150 0.0 0.0 0.00 0.00 0.00 93 1018.9
20260906110352 20 145 1.6 1.6 0.00 0.00 0.00 93 1019.1
20260906105850 20 176 1.6 3.2 0.00 0.00 0.00 93 1019.1
20260906105347 20 155 1.6 3.2 0.00 0.00 0.00 93 1018.9
20260906104842 20 164 0.0 1.6 0.00 0.00 0.00 92 1018.9
20260906104341 21 168 1.6 4.8 0.00 0.00 0.00 92 1019.1
20260906103839 21 169 1.6 1.6 0.00 0.00 0.00 92 1018.9
20260906103338 21 144 0.0 1.6 0.00 0.00 0.00 92 1018.9
20260906102834 21 139 0.0 1.6 0.00 0.00 0.00 92 1018.8
20260906102333 21 160 0.0 1.6 0.00 0.00 0.00 92 1018.9
20260906101828 21 187 9.7 12.9 0.00 0.00 0.00 92 1018.9
20260906101323 21 174 3.2 4.8 0.00 0.00 0.00 92 1019.0
20260906100819 21 157 1.6 4.8 0.00 0.00 0.00 93 1018.6
20260906100318 20 153 1.6 1.6 0.00 0.00 0.00 93 1018.6
20260906095813 20 167 1.6 3.2 0.00 0.00 0.00 94 1018.5
20260906095309 20 167 3.2 4.8 0.00 0.00 0.00 94 1018.4
20260906094808 20 164 1.6 3.2 0.00 0.00 0.00 94 1018.3
20260906094303 20 150 0.0 0.0 0.00 0.00 0.00 94 1018.2
20260906093759 20 150 0.0 0.0 0.00 0.00 0.00 94 1018.2
20260906093255 20 150 0.0 0.0 0.00 0.00 0.00 94 1018.2
20260906092750 20 150 0.0 0.0 0.00 0.00 0.00 94 1018.1
20260906092250 20 150 0.0 0.0 0.00 0.00 0.00 94 1018.3
20260906091746 20 150 0.0 0.0 0.00 0.00 0.00 93 1018.2
20260906091242 20 150 0.0 0.0 0.00 0.00 0.00 93 1018.2
20260906090738 20 150 1.6 1.6 0.00 0.00 0.00 94 1018.2
20260906090237 20 150 0.0 0.0 0.00 0.00 0.00 93 1018.3
20260906085736 20 149 0.0 0.0 0.00 0.00 0.00 93 1018.1
20260906085236 20 149 0.0 0.0 0.00 0.00 0.00 93 1018.1
20260906084731 20 149 0.0 0.0 0.00 0.00 0.00 93 1018.1
20260906084231 20 149 0.0 0.0 0.00 0.00 0.00 92 1018.3
20260906083725 20 149 0.0 0.0 0.00 0.00 0.00 92 1018.1
20260906083221 20 149 0.0 0.0 0.00 0.00 0.00 92 1018.2
20260906082716 20 149 0.0 0.0 0.00 0.00 0.00 91 1018.2
20260906082211 20 149 0.0 0.0 0.00 0.00 0.00 91 1018.3
20260906081707 20 149 0.0 0.0 0.00 0.00 0.00 91 1018.2
20260906081202 21 149 0.0 1.6 0.00 0.00 0.00 91 1018.1
20260906080659 21 150 1.6 1.6 0.00 0.00 0.00 91 1018.0
20260906080154 21 164 1.6 1.6 0.00 0.00 0.00 91 1018.1
20260906075654 21 164 0.0 0.0 0.00 0.00 0.00 90 1018.2
20260906075148 21 164 0.0 1.6 0.00 0.00 0.00 90 1018.1
20260906074644 21 165 0.0 1.6 0.00 0.00 0.00 90 1018.3
20260906074143 21 169 0.0 0.0 0.00 0.00 0.00 91 1018.3
20260906073638 21 169 0.0 0.0 0.00 0.00 0.00 90 1018.3
20260906073134 21 169 0.0 0.0 0.00 0.00 0.00 90 1018.5
20260906072628 21 169 0.0 0.0 0.00 0.00 0.00 90 1018.7
20260906072125 21 169 0.0 0.0 0.00 0.00 0.00 89 1018.5
20260906071621 21 169 0.0 0.0 0.00 0.00 0.00 89 1018.5
20260906071121 21 169 0.0 0.0 0.00 0.00 0.00 88 1018.7
20260906070618 21 169 0.0 1.6 0.00 0.00 0.00 88 1018.4
20260906070113 21 169 0.0 0.0 0.00 0.00 0.00 88 1018.3
20260906065612 21 169 0.0 0.0 0.00 0.00 0.00 88 1018.3
20260906065108 21 169 0.0 1.6 0.00 0.00 0.00 88 1018.4
20260906064603 21 169 0.0 0.0 0.00 0.00 0.00 88 1018.5
20260906064058 21 169 0.0 0.0 0.00 0.00 0.00 88 1018.5
20260906063553 21 169 0.0 0.0 0.00 0.00 0.00 88 1018.5
20260906063050 21 169 0.0 0.0 0.00 0.00 0.00 88 1018.6
20260906062545 21 169 0.0 0.0 0.00 0.00 0.00 87 1018.7
20260906062044 22 169 0.0 0.0 0.00 0.00 0.00 87 1018.6
20260906061541 22 169 0.0 1.6 0.00 0.00 0.00 86 1018.6
20260906061040 22 169 0.0 0.0 0.00 0.00 0.00 86 1018.7
20260906060537 22 169 0.0 0.0 0.00 0.00 0.00 85 1018.7
20260906060034 22 169 0.0 0.0 0.00 0.00 0.00 85 1018.5
20260906055529 22 169 0.0 0.0 0.00 0.00 0.00 84 1018.5
20260906055024 22 169 0.0 0.0 0.00 0.00 0.00 84 1018.5
20260906054524 22 169 0.0 0.0 0.00 0.00 0.00 83 1018.7
20260906054020 22 169 0.0 0.0 0.00 0.00 0.00 83 1018.7
20260906053516 22 169 1.6 1.6 0.00 0.00 0.00 83 1018.4
20260906053011 22 169 0.0 0.0 0.00 0.00 0.00 83 1018.5
20260906052507 22 169 0.0 0.0 0.00 0.00 0.00 83 1018.5
20260906052004 22 169 0.0 0.0 0.00 0.00 0.00 83 1018.7
20260906051459 22 169 0.0 0.0 0.00 0.00 0.00 83 1018.7
20260906050955 22 169 0.0 0.0 0.00 0.00 0.00 83 1018.7
20260906050454 22 169 0.0 0.0 0.00 0.00 0.00 84 1018.5
20260906045954 22 169 0.0 0.0 0.00 0.00 0.00 84 1018.6
20260906045452 22 169 0.0 0.0 0.00 0.00 0.00 84 1018.6
20260906044948 22 169 0.0 0.0 0.00 0.00 0.00 84 1018.7
20260906044444 22 169 0.0 0.0 0.00 0.00 0.00 84 1018.8
20260906043939 22 169 0.0 0.0 0.00 0.00 0.00 84 1018.8
20260906043435 22 169 0.0 0.0 0.00 0.00 0.00 84 1019.0
20260906042931 22 169 0.0 0.0 0.00 0.00 0.00 83 1018.7
20260906042430 22 169 0.0 0.0 0.00 0.00 0.00 83 1018.8
20260906041924 22 169 0.0 0.0 0.00 0.00 0.00 83 1018.8
20260906041420 22 169 0.0 0.0 0.00 0.00 0.00 83 1018.8
20260906040920 23 169 0.0 0.0 0.00 0.00 0.00 82 1018.9
20260906040416 23 169 0.0 0.0 0.00 0.00 0.00 82 1019.0
20260906035911 23 169 0.0 0.0 0.00 0.00 0.00 81 1018.8
20260906035407 23 169 0.0 0.0 0.00 0.00 0.00 81 1019.0
20260906034902 23 169 0.0 0.0 0.00 0.00 0.00 80 1019.0
20260906034402 23 169 0.0 0.0 0.00 0.00 0.00 80 1018.9
20260906033858 23 169 0.0 0.0 0.00 0.00 0.00 80 1018.9
20260906033357 23 169 0.0 0.0 0.00 0.00 0.00 80 1018.8
20260906032853 23 169 0.0 0.0 0.00 0.00 0.00 80 1018.9
20260906032349 23 169 0.0 0.0 0.00 0.00 0.00 80 1018.8
20260906031844 23 169 0.0 0.0 0.00 0.00 0.00 79 1018.8
20260906031339 23 169 0.0 0.0 0.00 0.00 0.00 79 1018.8
20260906030839 23 169 0.0 0.0 0.00 0.00 0.00 79 1018.9
20260906030335 23 169 0.0 0.0 0.00 0.00 0.00 79 1018.9
20260906025835 23 170 0.0 0.0 0.00 0.00 0.00 79 1019.1
20260906025329 23 169 0.0 0.0 0.00 0.00 0.00 79 1018.9
20260906024828 23 169 0.0 0.0 0.00 0.00 0.00 78 1018.8
20260906024327 23 169 0.0 0.0 0.00 0.00 0.00 78 1018.7
20260906023823 23 169 0.0 0.0 0.00 0.00 0.00 78 1018.5
20260906023318 23 169 0.0 0.0 0.00 0.00 0.00 78 1018.4
20260906022814 23 169 0.0 0.0 0.00 0.00 0.00 77 1018.3
20260906022309 23 169 0.0 0.0 0.00 0.00 0.00 77 1018.3
20260906021805 23 169 0.0 0.0 0.00 0.00 0.00 77 1018.2
20260906021304 23 169 0.0 0.0 0.00 0.00 0.00 77 1018.2
20260906020758 23 170 0.0 1.6 0.00 0.00 0.00 76 1018.2
20260906020258 23 169 0.0 0.0 0.00 0.00 0.00 75 1018.0
20260906015758 24 169 0.0 0.0 0.00 0.00 0.00 75 1017.7
20260906015257 24 169 0.0 0.0 0.00 0.00 0.00 74 1017.5
20260906014752 24 170 0.0 1.6 0.00 0.00 0.00 73 1017.4
20260906014247 24 169 1.6 1.6 0.00 0.00 0.00 73 1017.3
20260906013743 25 166 0.0 1.6 0.00 0.00 0.00 72 1017.3
20260906013243 25 133 1.6 1.6 0.00 0.00 0.00 72 1017.0
20260906012739 25 140 1.6 1.6 0.00 0.00 0.00 71 1017.0
20260906012234 25 140 1.6 1.6 0.00 0.00 0.00 71 1017.1
20260906011729 25 170 3.2 3.2 0.00 0.00 0.00 70 1016.9
20260906011228 25 136 0.0 1.6 0.00 0.00 0.00 70 1016.9
20260906010724 25 155 1.6 4.8 0.00 0.00 0.00 69 1017.0
20260906010220 25 174 3.2 9.7 0.00 0.00 0.00 69 1016.8
20260906005715 25 153 6.4 6.4 0.00 0.00 0.00 69 1016.6
20260906005214 25 162 3.2 6.4 0.00 0.00 0.00 69 1016.5
20260906004713 25 166 3.2 6.4 0.00 0.00 0.00 69 1016.4
20260906004209 26 204 4.8 6.4 0.00 0.00 0.00 70 1016.4
20260906003704 26 132 1.6 4.8 0.00 0.00 0.00 70 1016.3
20260906003200 26 155 3.2 4.8 0.00 0.00 0.00 69 1016.4
20260906002659 26 180 4.8 6.4 0.00 0.00 0.00 69 1016.6
20260906002154 26 158 3.2 9.7 0.00 0.00 0.00 68 1016.5
20260906001650 27 117 6.4 11.3 0.00 0.00 0.00 67 1016.3
20260906001149 27 135 3.2 4.8 0.00 0.00 0.00 66 1016.4
20260906000645 27 153 3.2 4.8 0.00 0.00 0.00 63 1016.4
20260906000141 27 126 1.6 3.2 0.00 0.00 0.00 63 1016.4
20260905235639 27 137 3.2 3.2 0.00 0.00 0.00 62 1016.3
20260905235135 28 156 4.8 4.8 0.00 0.00 0.00 61 1016.3
20260905234630 28 169 3.2 3.2 0.00 0.00 0.00 60 1015.9
20260905234125 28 150 1.6 4.8 0.00 0.00 0.00 59 1015.9
20260905233620 28 125 1.6 1.6 0.00 0.00 0.00 58 1015.9
20260905233114 28 103 1.6 3.2 0.00 0.00 0.00 57 1015.9
20260905232610 28 144 0.0 3.2 0.00 0.00 0.00 56 1015.8
20260905232105 29 157 1.6 9.7 0.00 0.00 0.00 55 1015.9
20260905231600 30 163 1.6 3.2 0.00 0.00 0.00 54 1016.0
20260905231057 30 157 1.6 4.8 0.00 0.00 0.00 54 1015.7
20260905230556 30 153 1.6 3.2 0.00 0.00 0.00 53 1015.6
20260905230055 30 79 3.2 6.4 0.00 0.00 0.00 53 1015.5
20260905225554 30 74 3.2 4.8 0.00 0.00 0.00 52 1015.5
20260905225050 31 130 1.6 4.8 0.00 0.00 0.00 52 1015.7
20260905224550 31 142 1.6 4.8 0.00 0.00 0.00 51 1015.7
20260905224049 31 129 3.2 3.2 0.00 0.00 0.00 50 1015.6
20260905223547 31 109 1.6 1.6 0.00 0.00 0.00 50 1015.6
20260905223043 31 155 1.6 4.8 0.00 0.00 0.00 50 1015.5
20260905222543 31 89 1.6 3.2 0.00 0.00 0.00 50 1015.7
20260905222038 31 84 3.2 4.8 0.00 0.00 0.00 51 1015.7
20260905221534 31 50 1.6 3.2 0.00 0.00 0.00 51 1015.7
20260905221030 31 185 3.2 3.2 0.00 0.00 0.00 51 1015.7
20260905220526 31 146 3.2 4.8 0.00 0.00 0.00 50 1015.6
20260905220022 31 78 1.6 3.2 0.00 0.00 0.00 50 1015.4
20260905215515 31 64 0.0 4.8 0.00 0.00 0.00 50 1015.6
20260905215012 31 136 3.2 4.8 0.00 0.00 0.00 49 1015.7
20260905214508 31 65 3.2 3.2 0.00 0.00 0.00 50 1015.8
20260905214008 31 108 1.6 3.2 0.00 0.00 0.00 51 1015.6
20260905213503 31 130 1.6 4.8 0.00 0.00 0.00 51 1015.8
20260905212958 31 255 3.2 4.8 0.00 0.00 0.00 51 1015.6
20260905212453 31 67 3.2 3.2 0.00 0.00 0.00 50 1015.7
20260905211952 31 155 1.6 4.8 0.00 0.00 0.00 52 1016.0
20260905211448 31 38 3.2 6.4 0.00 0.00 0.00 51 1016.2
20260905210943 31 72 0.0 1.6 0.00 0.00 0.00 53 1016.2
20260905210439 30 28 4.8 4.8 0.00 0.00 0.00 52 1016.2
20260905205938 31 151 3.2 6.4 0.00 0.00 0.00 52 1016.2
20260905205433 31 305 3.2 3.2 0.00 0.00 0.00 54 1016.6
20260905204932 30 150 3.2 6.4 0.00 0.00 0.00 55 1016.5
20260905204428 30 171 4.8 4.8 0.00 0.00 0.00 57 1016.9
20260905203927 29 192 4.8 4.8 0.00 0.00 0.00 58 1016.8
20260905203422 28 106 1.6 1.6 0.00 0.00 0.00 61 1017.0
20260905202918 28 141 0.0 3.2 0.00 0.00 0.00 62 1017.1
20260905202413 28 152 4.8 6.4 0.00 0.00 0.00 62 1017.3
20260905201908 28 153 4.8 6.4 0.00 0.00 0.00 61 1017.3
20260905201404 28 162 4.8 4.8 0.00 0.00 0.00 61 1017.4
20260905200903 28 167 3.2 4.8 0.00 0.00 0.00 61 1017.5
20260905200359 29 187 1.6 4.8 0.00 0.00 0.00 59 1017.5
20260905195857 29 163 0.0 3.2 0.00 0.00 0.00 58 1017.4
20260905195353 29 107 1.6 3.2 0.00 0.00 0.00 58 1017.5
20260905194849 28 77 1.6 3.2 0.00 0.00 0.00 61 1017.6
20260905194348 28 216 3.2 4.8 0.00 0.00 0.00 62 1017.7
20260905193848 28 208 4.8 4.8 0.00 0.00 0.00 61 1017.9
20260905193342 28 153 1.6 1.6 0.00 0.00 0.00 63 1017.7
20260905192838 28 153 3.2 6.4 0.00 0.00 0.00 62 1018.0
20260905192334 28 160 1.6 3.2 0.00 0.00 0.00 63 1017.7
20260905191833 28 159 1.6 3.2 0.00 0.00 0.00 63 1017.7
20260905191332 27 144 3.2 3.2 0.00 0.00 0.00 64 1017.9
20260905190831 27 181 1.6 3.2 0.00 0.00 0.00 64 1017.9
20260905190331 27 181 1.6 3.2 0.00 0.00 0.00 64 1017.8
20260905185829 27 217 4.8 4.8 0.00 0.00 0.00 64 1017.7
20260905185325 27 10 3.2 3.2 0.00 0.00 0.00 64 1017.9
20260905184824 27 54 3.2 3.2 0.00 0.00 0.00 64 1017.8
20260905184323 27 123 3.2 3.2 0.00 0.00 0.00 64 1018.0
20260905183822 28 180 3.2 4.8 0.00 0.00 0.00 64 1017.8
20260905183318 28 164 4.8 4.8 0.00 0.00 0.00 64 1017.9
20260905182812 28 80 1.6 3.2 0.00 0.00 0.00 65 1017.8
20260905182312 27 206 3.2 3.2 0.00 0.00 0.00 66 1017.9
20260905181807 27 177 8.0 11.3 0.00 0.00 0.00 68 1018.0
20260905181301 26 179 3.2 4.8 0.00 0.00 0.00 71 1017.9
20260905180800 26 136 4.8 4.8 0.00 0.00 0.00 70 1017.9
20260905180256 26 167 4.8 9.7 0.00 0.00 0.00 70 1017.9
20260905175756 26 153 1.6 3.2 0.00 0.00 0.00 70 1018.3
20260905175250 26 192 3.2 4.8 0.00 0.00 0.00 69 1018.2
20260905174746 26 205 3.2 4.8 0.00 0.00 0.00 69 1018.3
20260905174241 27 208 6.4 9.7 0.00 0.00 0.00 68 1018.6
20260905173737 26 160 1.6 1.6 0.00 0.00 0.00 70 1018.5
20260905173233 26 212 4.8 6.4 0.00 0.00 0.00 71 1018.5
20260905172727 26 157 1.6 4.8 0.00 0.00 0.00 69 1018.7
20260905172226 26 140 3.2 3.2 0.00 0.00 0.00 70 1018.8
20260905171723 26 118 1.6 1.6 0.00 0.00 0.00 72 1018.7
20260905171219 25 9 3.2 3.2 0.00 0.00 0.00 73 1018.8
20260905170716 25 188 3.2 3.2 0.00 0.00 0.00 73 1018.6
20260905170215 25 117 1.6 1.6 0.00 0.00 0.00 75 1018.6
20260905165715 25 190 3.2 6.4 0.00 0.00 0.00 77 1018.7
20260905165205 25 178 4.8 4.8 0.00 0.00 0.00 75 1018.8
20260905164705 25 146 1.6 4.8 0.00 0.00 0.00 75 1018.5
20260905164205 25 137 1.6 1.6 0.00 0.00 0.00 76 1018.7
20260905163701 24 61 3.2 3.2 0.00 0.00 0.00 77 1019.0
20260905163157 24 207 1.6 1.6 0.00 0.00 0.00 78 1018.8